Skip Page Navigation
NASA JPL Caltech
NASA Logo - Jet Propulsion Laboratory + View the NASA Portal
+ Near-Earth Object (NEO) Program
Search JPL
JPL Home Earth Solar System Stars & Galaxies Technology
JPL Solar System Dynamics
BODIES ORBITS EPHEMERIDES TOOLS PHYSICAL DATA DISCOVERY FAQ SITE MAP
JPL Small-Body Database Browser
Search: [ help ]  
9829 Murillo (1973 SJ1)
Classification: Outer Main-belt Asteroid          SPK-ID: 2009829
Ephemeris | Orbit Diagram | Orbital Elements | Physical Parameters | Discovery Circumstances | Close-Approach Data ]

[ show orbit diagram ]
Orbital Elements at Epoch 2457000.5 (2014-Dec-09.0) TDB
Reference: JPL 9 (heliocentric ecliptic J2000)
 Element Value Uncertainty (1-sigma)   Units 
e .1243861616561699 6.7351e-08  
a 3.955210609740241 6.6097e-08 AU
q 3.463237143452893 2.6005e-07 AU
i 2.637968509020908 6.9408e-06 deg
node 181.8793163429048 0.00012446 deg
peri 8.405696457685737 0.0001269 deg
M 254.9872040887212 2.8382e-05 deg
tp 2457838.593685790461
(2017-Mar-26.09368579)
0.00023837 JED
period 2873.113931177227
7.87
7.202e-05
1.972e-07
d
yr
n .125299590835402 3.1409e-09 deg/d
Q 4.447184076027589 7.4318e-08 AU
  Orbit Determination Parameters
   # obs. used (total)      1132  
   data-arc span      15021 days (41.13 yr)  
   first obs. used      1973-09-19  
   last obs. used      2014-11-04  
   planetary ephem.      DE431  
   SB-pert. ephem.      SB431-BIG16  
   condition code      0  
   fit RMS      .51636  
   data source      ORB  
   producer      Otto Matic  
   solution date      2014-Nov-10 13:10:38  

Additional Information
 Earth MOID = 2.46489 AU 
 T_jup = 3.044 
[ show covariance matrix ]

Ephemeris | Orbit Diagram | Orbital Elements | Physical Parameters | Discovery Circumstances | Close-Approach Data ]

Physical Parameter Table
Parameter Symbol Value Units Sigma Reference Notes
absolute magnitude H 12.1 mag n/a MPO279619  
rotation period rot_per 4. h n/a Asteroid Lightcurve DataBase (Rev. 2014-Mar-01) lower-limit; Incomplete or inconclusive result.
Published Reference List:
[Slyusarev, I.G.; Shevchenko, V.G.; Belskaya, I.N.; Krugly, Yu.N.; Chiorny, V.G. (2012) ACM 2012, #6398.]

9829 Murillo           Discovered 1973 Sept. 19 by C. J. van Houten and I. van Houten-Groeneveld on Palomar Schmidt plates taken by T. Gehrels.
Bartolomé Estéban Murillo (1618-1682) created many religious paintings for churches. The painter from Seville is famous for his genre pictures of children that were poor but happy, and these are imitated even today.
NOTE: some special characters may not display properly (any characters within {} are an attempt to place the proper accent above a character)
Reference: 19990402/MPCPages.arcLast Updated: 2010-06-11

[ show close-approach data ]
Alternate Designations
 1973 SJ1 = 1978 JR3 
Ephemeris | Orbit Diagram | Orbital Elements | Physical Parameters | Discovery Circumstances | Close-Approach Data ]
ABOUT SSD CREDITS/AWARDS PRIVACY/COPYRIGHT GLOSSARY LINKS
FirstGov 2014-Nov-26 13:58 UT
(server date/time)  
NASA Home Page
Site Manager:   Donald K. Yeomans
Webmaster  Alan B. Chamberlin